Temperature
1 2 2 2 2 2 2 2 3 3 3 4 4 3 3 3 3 3 3 4 4 5 5 5 5 5 5 6 6 6 6 6 6 6 5 5 5 5 5 5 5 5 5 4
1 2 2 2 2 2 2 2 2 3 3 3 3 3 2 2 2 3 3 4 4 4 4 4 4 5 5 5 5 5 5 5 5 5 5 5 5 5 5 4 4 4 4 4
0 1 2 2 1 2 2 1 2 3 3 2 2 2 2 2 2 3 3 4 4 4 4 4 4 4 4 5 5 5 5 5 5 4 4 4 4 4 4 4 4 4 4 4
-1 0 1 2 1 2 2 1 1 2 2 2 2 2 2 3 3 3 3 3 3 3 3 4 4 4 4 4 4 4 4 4 4 4 4 4 4 4 4 4 4 4 3 3
-1 -0 0 1 1 0 1 1 1 1 1 1 1 1 1 2 3 3 3 3 3 3 3 3 4 4 4 4 4 4 4 4 4 4 3 3 3 3 3 3 3 3 3 3
-2 -0 1 1 1 1 1 1 0 0 -0 -0 0 1 1 2 2 2 2 2 2 3 3 3 3 3 3 3 3 3 3 3 3 3 3 3 3 3 3 3 3 3 3 3
-2 -2 -1 0 -0 1 1 1 1 0 -0 -1 -0 0 1 1 1 1 2 2 2 2 3 3 3 3 3 3 3 3 3 3 3 2 2 2 2 2 2 2 2 2 2 2
-3 -2 -0 -1 -1 -0 0 0 0 0 -0 -1 -1 -0 0 0 1 1 1 1 2 2 2 2 2 2 2 2 2 2 2 2 2 2 2 2 2 2 2 2 2 2 2 2
-2 -1 -1 -1 -1 -1 -1 -1 -1 -1 -0 -0 -1 -1 -1 -0 -0 0 0 1 1 1 2 2 2 2 2 2 2 2 2 2 1 1 1 1 1 1 1 1 1 1 1 1
-3 -2 -2 -2 -2 -1 -1 -1 -1 -1 -1 -1 -1 -2 -1 -1 -1 -1 -0 0 0 1 1 1 1 1 1 1 1 1 1 1 1 1 1 1 1 1 1 1 1 1 0 0
-3 -3 -3 -2 -2 -2 -1 -1 -1 -1 -1 -1 -1 -2 -2 -2 -1 -1 -1 -1 -0 -0 0 0 1 1 1 1 1 0 0 0 0 0 0 0 0 0 0 0 0 -0 -0 -0
-3 -3 -4 -3 -2 -2 -2 -2 -2 -2 -2 -2 -2 -2 -2 -2 -2 -1 -1 -1 -1 -1 -0 -0 -0 0 -0 -0 -0 -0 -0 -0 -0 -1 -1 -0 -0 -0 -0 -0 -0 -1 -1 -1
-4 -3 -3 -3 -3 -3 -2 -2 -2 -2 -2 -3 -3 -3 -2 -2 -2 -2 -2 -1 -1 -1 -1 -1 -1 -1 -1 -1 -1 -1 -1 -1 -1 -1 -1 -1 -1 -1 -1 -1 -1 -1 -1 -1
-4 -4 -4 -4 -4 -3 -3 -3 -3 -3 -3 -3 -3 -3 -3 -3 -2 -2 -2 -2 -2 -2 -2 -2 -1 -1 -2 -2 -1 -1 -1 -1 -1 -1 -1 -1 -1 -2 -2 -2 -2 -2 -2 -2
-4 -4 -4 -4 -4 -4 -4 -4 -4 -4 -4 -4 -4 -4 -3 -3 -3 -3 -3 -3 -2 -2 -2 -2 -2 -2 -2 -2 -2 -2 -2 -2 -2 -2 -2 -2 -2 -2 -2 -2 -2 -2 -2 -2
-5 -5 -5 -5 -5 -4 -4 -4 -5 -5 -5 -4 -4 -4 -4 -4 -3 -3 -3 -3 -3 -3 -3 -3 -3 -3 -3 -3 -3 -2 -3 -3 -3 -3 -3 -3 -3 -3 -3 -3 -3 -3 -3 -3
-6 -6 -6 -6 -5 -5 -5 -5 -5 -5 -5 -5 -5 -4 -4 -4 -4 -4 -4 -4 -4 -4 -4 -4 -3 -3 -3 -3 -3 -3 -3 -3 -3 -3 -3 -3 -3 -3 -3 -3 -3 -3 -3 -4
-6 -6 -6 -6 -6 -6 -6 -6 -6 -5 -5 -5 -5 -5 -5 -5 -4 -4 -4 -4 -4 -4 -4 -4 -4 -4 -4 -4 -4 -4 -4 -4 -4 -4 -4 -4 -4 -4 -4 -4 -4 -4 -4 -4
-6 -6 -6 -6 -6 -6 -6 -6 -6 -6 -6 -6 -6 -6 -5 -5 -5 -5 -5 -5 -5 -4 -5 -5 -5 -5 -4 -4 -4 -4 -4 -4 -4 -4 -4 -4 -4 -4 -4 -4 -4 -4 -4 -4
-7 -7 -7 -7 -7 -7 -6 -6 -6 -6 -6 -6 -6 -6 -6 -6 -5 -5 -5 -5 -5 -5 -5 -5 -5 -5 -5 -5 -5 -5 -5 -5 -5 -5 -5 -5 -5 -5 -5 -5 -5 -5 -5 -5
-7 -7 -7 -7 -7 -7 -7 -7 -7 -6 -6 -6 -6 -6 -6 -6 -6 -6 -6 -6 -5 -5 -5 -5 -5 -5 -5 -6 -5 -5 -5 -5 -5 -5 -5 -5 -5 -5 -5 -5 -5 -5 -5 -5
-8 -7 -7 -7 -7 -7 -7 -7 -7 -7 -7 -7 -7 -7 -7 -6 -6 -6 -6 -6 -6 -6 -6 -6 -6 -6 -6 -6 -6 -6 -6 -6 -6 -6 -6 -5 -5 -5 -5 -5 -5 -5 -5 -5
-8 -8 -8 -8 -8 -8 -8 -8 -8 -7 -7 -7 -7 -7 -7 -7 -6 -6 -6 -6 -6 -6 -6 -6 -6 -6 -6 -7 -6 -6 -6 -6 -6 -6 -6 -6 -6 -6 -6 -6 -6 -6 -6 -6
-8 -8 -8 -8 -8 -8 -8 -8 -8 -8 -8 -8 -7 -7 -7 -7 -7 -7 -7 -7 -7 -7 -7 -7 -7 -7 -7 -7 -7 -7 -7 -6 -6 -6 -6 -6 -6 -6 -6 -6 -6 -6 -6 -6
-8 -8 -8 -8 -8 -8 -8 -8 -8 -8 -8 -8 -8 -8 -8 -7 -7 -7 -7 -7 -7 -7 -7 -7 -7 -7 -7 -7 -7 -7 -7 -7 -7 -7 -7 -7 -7 -7 -6 -6 -6 -6 -6 -6
-9 -9 -9 -9 -9 -9 -9 -9 -9 -9 -8 -8 -8 -8 -8 -8 -8 -8 -8 -8 -8 -7 -7 -7 -7 -7 -7 -7 -7 -7 -7 -7 -7 -7 -7 -7 -7 -7 -7 -7 -7 -6 -6 -6
-9 -9 -9 -9 -9 -9 -9 -9 -9 -9 -9 -8 -8 -8 -8 -8 -8 -8 -8 -8 -8 -8 -8 -8 -8 -7 -7 -7 -7 -7 -7 -7 -7 -7 -7 -7 -7 -7 -7 -7 -7 -7 -7 -7
Wind_Speed
3 4 2 3 4 5 6 6 7 6 6 6 4 3 3 2 2 2 2 3 2 2 2 2 2 2 1 1 2 3 4 4 4 3 3 2 2 2 1 1 1 1 1 1
2 2 1 2 3 5 5 4 5 4 6 4 3 1 2 1 1 0 1 2 2 2 1 1 1 1 1 1 1 3 3 3 2 3 3 2 2 2 1 1 1 1 1 1
2 3 1 3 5 5 4 4 5 7 7 3 2 3 3 3 2 2 2 1 1 1 1 1 1 1 1 1 1 2 3 2 2 2 3 2 2 2 1 1 0 0 1 1
0 2 3 4 1 3 3 3 3 2 2 3 3 3 2 2 2 2 2 2 2 2 2 2 1 1 1 1 1 2 2 2 2 2 2 2 2 1 1 0 0 0 1 1
1 1 5 4 2 0 3 4 2 3 3 3 2 3 3 2 1 2 2 2 2 1 1 1 1 1 1 1 1 2 2 2 2 2 2 2 1 1 0 0 0 1 1 1
2 1 4 4 3 3 1 3 2 2 3 2 1 1 4 3 2 2 2 1 1 1 1 1 1 1 2 1 1 1 1 1 1 2 2 1 1 1 0 0 0 1 1 1
2 3 6 4 4 1 2 4 4 2 2 1 2 3 3 2 2 2 2 2 1 1 1 1 1 2 2 1 0 0 1 2 2 2 1 1 1 1 1 1 1 1 1 2
2 2 5 3 2 2 3 4 3 3 2 1 2 2 1 1 2 2 3 2 2 2 2 2 1 2 2 1 1 1 2 2 2 2 1 1 2 1 1 1 1 1 1 2
4 5 3 2 2 3 3 4 3 3 3 1 1 2 2 2 2 2 2 3 2 2 2 3 2 2 2 1 1 2 3 3 2 2 2 2 1 1 1 1 1 1 1 2
3 5 4 4 3 4 4 4 4 3 2 2 1 1 1 1 2 2 2 2 2 2 2 2 3 2 1 2 2 3 3 2 2 2 2 2 1 1 1 0 1 1 1 2
4 5 5 4 4 5 4 4 4 4 3 2 1 1 1 1 2 2 2 2 2 2 2 2 2 3 2 2 3 3 2 2 2 2 2 2 2 2 1 0 1 1 1 2
5 4 3 5 5 4 3 3 3 3 3 3 2 1 1 1 1 1 2 2 2 2 2 2 2 3 3 2 2 3 2 2 2 2 2 2 2 3 4 3 3 3 2 2
4 4 4 5 4 3 3 3 3 2 2 2 2 2 2 1 2 2 2 3 2 2 2 2 2 3 3 2 2 2 2 1 1 1 2 2 2 2 3 4 5 5 5 5
3 2 2 3 3 4 3 3 3 3 3 2 2 2 2 2 2 3 2 2 2 2 3 3 3 3 3 2 2 2 2 2 2 2 2 1 1 1 1 2 3 4 5 6
5 3 2 3 3 4 4 3 4 4 4 4 3 2 2 2 2 3 3 2 3 3 3 3 3 3 3 3 2 2 2 2 2 2 2 2 2 2 2 2 2 3 3 5
5 3 2 3 4 4 4 3 3 3 3 3 3 3 2 2 2 3 3 2 2 2 2 2 2 2 2 2 3 2 2 3 3 2 2 2 2 2 2 2 2 3 3 4
2 3 3 4 4 4 3 2 2 2 2 2 2 2 3 3 3 3 3 3 3 2 2 2 2 3 3 2 2 2 2 2 3 3 2 2 2 2 2 2 2 3 3 4
2 2 2 3 3 3 3 3 2 1 1 1 2 2 2 2 2 2 2 3 3 4 4 3 2 2 3 2 2 2 2 2 2 2 2 2 2 2 2 2 2 3 3 5
2 2 2 2 2 2 2 2 2 2 2 1 1 1 1 1 1 1 2 2 2 3 3 3 4 4 3 3 3 2 2 2 2 2 2 2 3 2 2 2 2 3 3 4
3 3 3 3 3 2 2 2 2 2 2 1 1 1 1 2 1 1 1 2 2 1 1 2 2 2 2 2 3 2 2 2 1 1 1 1 1 2 2 2 2 3 3 3
3 3 4 3 3 3 2 2 1 2 2 1 0 0 1 1 1 1 1 2 3 2 2 3 2 2 2 2 2 2 2 1 1 1 1 1 1 2 2 3 3 3 3 3
3 3 3 3 3 3 3 2 2 2 2 1 1 1 1 1 2 2 1 1 2 3 2 2 1 2 2 2 2 2 1 1 1 1 1 1 1 2 2 3 3 3 3 4
2 3 3 3 2 3 3 3 2 1 1 1 1 1 1 1 1 1 1 1 1 2 2 1 2 3 3 2 2 1 1 1 1 1 1 1 1 2 2 3 3 3 3 4
2 2 2 2 2 2 2 3 2 2 1 2 1 1 1 1 1 1 1 2 3 3 2 2 3 3 3 2 1 1 1 1 1 1 1 1 1 2 2 3 3 3 3 4
2 2 2 2 2 2 2 2 2 2 2 2 2 2 1 1 1 1 1 1 2 2 2 2 3 3 2 1 1 1 0 1 1 1 1 1 2 2 2 3 3 3 3 4
2 2 2 2 2 2 2 1 1 2 1 1 2 2 1 1 1 1 1 1 1 2 2 2 2 2 1 1 1 0 0 1 2 1 1 2 2 2 2 3 3 3 3 4
2 2 1 2 2 1 1 1 1 2 1 1 1 2 1 1 1 1 1 1 1 2 2 2 1 1 1 1 1 1 1 1 1 1 2 2 2 2 3 3 3 3 4 4
Wind_Direction
278 269 224 227 223 207 204 208 207 229 231 253 266 285 310 339 10 39 34 29 35 33 19 18 16 18 35 81 127 139 142 153 172 172 163 155 155 160 165 179 201 205 208 257
317 293 247 243 231 219 225 220 229 243 259 259 270 300 319 308 315 286 342 350 0 3 13 15 9 8 20 41 122 136 144 154 155 148 148 154 158 152 152 170 193 157 190 257
294 320 28 254 232 210 221 225 203 224 244 249 263 259 246 251 247 231 243 277 302 314 305 292 303 355 350 330 114 128 135 136 140 147 154 163 156 141 160 187 177 209 286 277
293 31 237 253 284 202 205 244 223 240 276 263 256 278 279 244 230 231 245 260 280 290 311 322 343 3 10 29 102 127 128 130 137 138 142 144 140 151 167 172 185 260 285 287
135 244 279 297 330 157 203 259 263 249 282 312 333 342 315 307 285 253 264 267 267 285 288 328 348 19 65 39 89 121 137 139 139 140 138 135 153 169 140 119 333 296 279 283
130 193 248 271 310 311 114 283 297 260 268 293 36 281 279 327 349 360 8 356 345 353 10 14 358 70 95 72 92 150 162 147 136 135 138 149 179 186 79 131 287 310 317 310
176 229 267 284 310 46 157 265 313 287 267 244 243 245 280 335 1 17 9 0 15 49 33 353 39 93 91 69 45 346 102 104 95 100 122 135 100 73 92 72 49 8 333 327
172 212 258 324 25 169 259 312 326 323 313 301 314 333 1 49 47 30 14 9 33 66 33 13 50 96 80 37 19 66 86 90 82 77 78 83 91 61 69 89 72 12 353 341
208 229 277 310 290 305 326 323 325 332 334 10 358 342 22 42 37 31 19 5 30 71 49 22 28 73 87 19 60 83 86 83 75 66 60 71 101 98 60 63 67 358 355 339
261 279 296 309 319 335 339 329 331 339 350 8 359 356 12 24 29 35 22 19 38 57 61 28 20 40 64 53 75 91 93 89 82 77 61 50 52 81 89 54 16 358 342 326
268 292 316 316 323 326 339 354 3 9 11 19 58 16 23 27 11 7 6 18 39 47 46 29 29 41 43 59 90 91 91 94 79 69 79 59 40 33 16 309 240 269 286 296
259 274 266 284 314 332 343 345 352 12 12 9 23 30 41 31 13 20 21 31 41 41 40 25 31 35 28 42 94 104 90 85 80 74 65 61 50 27 22 20 16 6 351 336
270 295 279 288 318 342 341 341 354 13 12 6 15 44 62 44 29 35 33 34 38 38 37 31 32 29 19 28 67 94 103 93 82 72 72 62 48 36 14 16 27 24 21 9
319 338 314 322 331 345 357 9 23 26 24 30 43 47 59 58 46 38 28 22 31 40 37 34 35 23 13 31 58 71 74 72 78 78 74 62 40 25 18 10 1 0 4 9
347 347 298 313 344 359 9 27 34 25 20 25 40 46 56 57 40 22 20 33 44 44 36 36 35 14 13 32 49 60 63 61 70 71 64 54 41 34 27 18 9 352 351 358
331 353 8 8 1 360 9 19 18 2 4 13 27 29 32 42 37 24 21 37 59 42 25 26 16 3 14 32 41 47 55 61 60 68 60 49 40 36 30 21 13 4 356 347
342 337 338 337 339 341 344 344 331 334 359 6 6 23 40 50 43 29 20 27 38 33 19 16 8 5 16 26 37 48 54 55 51 54 48 38 35 33 25 15 8 359 345 341
275 270 278 282 293 314 335 347 349 358 355 354 13 36 41 48 38 13 13 27 33 24 11 8 19 23 25 30 41 52 55 49 47 48 42 36 32 29 22 11 2 356 343 342
352 349 353 353 340 335 332 341 352 360 358 10 21 17 14 12 13 22 30 40 33 15 356 9 22 27 31 30 34 53 58 55 48 41 34 33 26 19 12 2 353 347 341 340
8 12 16 10 5 1 350 349 355 357 349 359 46 43 23 8 22 35 42 29 345 314 323 356 13 22 21 18 28 53 55 54 54 45 36 29 17 6 359 349 343 339 340 341
357 1 2 0 359 358 360 355 356 351 346 1 38 345 334 347 11 40 63 17 346 353 5 14 20 18 23 15 23 55 61 55 42 31 19 14 11 2 352 344 339 337 338 336
345 346 346 353 359 352 353 355 353 350 355 8 12 13 19 4 9 14 3 308 311 346 2 7 2 1 11 19 44 59 49 38 27 28 25 12 358 344 338 335 331 332 334 335
327 330 336 341 339 333 343 347 345 349 350 342 330 322 314 305 314 320 322 328 332 347 357 349 349 3 17 28 43 45 44 38 26 12 1 347 334 325 322 324 326 330 332 331
322 327 327 330 341 347 340 336 342 344 334 322 314 300 293 323 336 324 273 298 326 341 346 335 354 5 12 24 35 35 29 14 351 338 333 329 324 320 318 320 321 322 321 322
316 323 329 333 332 318 313 325 340 345 346 341 340 338 329 291 255 295 306 301 325 348 347 343 358 3 9 8 12 13 352 304 291 306 315 315 312 311 311 312 312 312 314 315
308 306 299 290 282 284 294 303 309 314 326 337 344 351 357 357 345 326 333 338 341 351 351 342 344 352 0 353 342 331 309 312 325 324 311 305 303 301 300 305 304 304 307 310
310 309 311 316 316 303 290 289 287 292 290 281 304 322 335 345 351 354 350 344 345 349 345 342 342 339 337 330 321 310 303 300 295 292 296 298 299 297 300 300 303 305 308 311
Height
1444 1441 1441 1442 1442 1444 1444 1444 1445 1442 1441 1437 1436 1436 1435 1435 1434 1434 1434 1434 1434 1435 1436 1436 1437 1438 1440 1441 1443 1445 1447 1449 1451 1453 1455 1457 1458 1460 1461 1461 1462 1462 1462 1462
1444 1440 1439 1440 1440 1440 1440 1440 1440 1439 1438 1434 1435 1435 1435 1434 1434 1433 1433 1434 1434 1435 1435 1436 1437 1437 1438 1439 1441 1443 1445 1447 1449 1451 1452 1454 1455 1456 1457 1458 1459 1459 1459 1459
1447 1443 1439 1441 1438 1438 1438 1437 1437 1436 1434 1433 1433 1433 1433 1433 1433 1433 1433 1433 1434 1434 1435 1435 1436 1436 1437 1438 1440 1441 1443 1445 1446 1448 1450 1451 1452 1453 1454 1455 1455 1456 1456 1455
1450 1447 1446 1438 1434 1433 1434 1434 1434 1433 1432 1432 1431 1431 1432 1432 1431 1431 1432 1432 1433 1433 1433 1434 1435 1436 1436 1437 1438 1439 1441 1442 1444 1445 1447 1448 1449 1450 1451 1451 1452 1452 1452 1452
1452 1450 1443 1436 1434 1435 1435 1434 1433 1432 1431 1431 1430 1429 1430 1430 1430 1430 1431 1431 1431 1432 1432 1433 1433 1434 1435 1435 1436 1438 1439 1440 1441 1443 1444 1445 1446 1447 1448 1448 1449 1449 1449 1448
1453 1449 1444 1436 1433 1431 1434 1434 1430 1430 1430 1430 1429 1431 1429 1428 1428 1428 1429 1429 1430 1430 1431 1431 1432 1432 1433 1433 1434 1436 1437 1438 1439 1441 1442 1443 1444 1445 1445 1446 1446 1446 1445 1445
1453 1452 1443 1436 1433 1432 1438 1434 1429 1428 1428 1428 1428 1428 1427 1426 1426 1427 1427 1428 1428 1428 1429 1429 1430 1431 1431 1432 1433 1434 1435 1436 1437 1438 1440 1440 1441 1442 1443 1443 1443 1443 1442 1442
1452 1450 1444 1436 1434 1435 1434 1430 1428 1427 1426 1426 1426 1425 1425 1425 1425 1425 1425 1426 1426 1426 1427 1428 1429 1429 1430 1430 1432 1432 1433 1434 1435 1436 1437 1438 1439 1440 1440 1440 1440 1440 1439 1439
1445 1442 1437 1435 1434 1433 1432 1430 1427 1426 1426 1425 1425 1424 1424 1424 1424 1424 1424 1425 1425 1425 1425 1426 1427 1428 1428 1429 1430 1431 1431 1432 1433 1434 1435 1436 1437 1437 1437 1438 1437 1437 1436 1435
1441 1437 1435 1434 1433 1431 1430 1428 1427 1426 1425 1424 1423 1423 1423 1423 1423 1423 1423 1424 1424 1424 1424 1425 1426 1427 1427 1428 1428 1429 1430 1430 1431 1432 1433 1434 1435 1435 1435 1435 1435 1434 1434 1433
1440 1437 1434 1432 1431 1430 1428 1427 1426 1425 1424 1424 1423 1423 1423 1422 1422 1423 1423 1423 1423 1423 1423 1424 1425 1425 1426 1426 1427 1427 1428 1429 1430 1431 1432 1432 1433 1434 1434 1434 1434 1433 1432 1432
1438 1435 1435 1432 1431 1430 1428 1426 1426 1424 1424 1424 1423 1422 1422 1422 1422 1422 1422 1422 1423 1423 1423 1423 1423 1424 1425 1425 1426 1426 1427 1428 1429 1430 1430 1431 1431 1432 1432 1432 1432 1432 1431 1431
1436 1433 1432 1431 1430 1429 1428 1426 1425 1424 1423 1423 1423 1422 1422 1422 1422 1422 1422 1422 1422 1422 1423 1423 1423 1423 1424 1424 1425 1426 1426 1427 1428 1428 1429 1429 1430 1430 1430 1430 1430 1430 1429 1429
1433 1432 1431 1430 1429 1428 1427 1426 1425 1424 1423 1423 1422 1422 1422 1421 1422 1422 1422 1422 1422 1422 1422 1422 1422 1422 1423 1424 1424 1425 1425 1426 1427 1427 1428 1428 1429 1429 1428 1428 1427 1427 1427 1427
1432 1432 1431 1429 1428 1427 1426 1425 1424 1423 1423 1422 1422 1421 1421 1421 1421 1422 1422 1422 1422 1422 1422 1422 1422 1422 1423 1423 1424 1424 1425 1425 1426 1426 1427 1427 1428 1428 1427 1427 1426 1426 1425 1425
1431 1430 1429 1428 1427 1426 1425 1425 1424 1423 1423 1422 1422 1421 1421 1421 1421 1421 1422 1422 1422 1421 1421 1421 1421 1422 1422 1423 1423 1423 1424 1425 1425 1426 1426 1427 1427 1427 1427 1426 1425 1425 1424 1423
1430 1429 1428 1427 1426 1426 1425 1425 1424 1423 1423 1422 1422 1421 1421 1421 1421 1421 1421 1422 1422 1421 1421 1421 1421 1421 1422 1422 1422 1423 1423 1424 1425 1425 1426 1426 1426 1426 1426 1425 1424 1424 1423 1422
1430 1429 1428 1427 1426 1425 1424 1424 1423 1423 1423 1422 1422 1422 1421 1421 1420 1421 1421 1421 1421 1421 1421 1421 1421 1421 1421 1422 1422 1422 1423 1424 1424 1425 1425 1425 1425 1425 1425 1424 1423 1422 1421 1421
1428 1427 1427 1426 1425 1424 1423 1423 1423 1422 1422 1422 1422 1421 1421 1421 1421 1421 1421 1421 1421 1421 1421 1421 1421 1421 1421 1422 1422 1422 1423 1424 1424 1424 1425 1425 1424 1424 1424 1423 1422 1421 1420 1419
1428 1427 1426 1425 1424 1424 1423 1422 1422 1422 1422 1422 1421 1421 1420 1420 1420 1420 1420 1420 1421 1421 1421 1421 1421 1421 1421 1421 1422 1422 1423 1423 1423 1424 1424 1423 1423 1423 1422 1422 1421 1420 1419 1418
1427 1426 1425 1424 1423 1423 1423 1422 1421 1421 1421 1421 1420 1420 1420 1420 1420 1420 1420 1420 1420 1421 1421 1420 1420 1420 1420 1421 1421 1422 1422 1422 1423 1422 1422 1422 1422 1421 1421 1420 1419 1418 1417 1416
1426 1425 1424 1424 1423 1422 1422 1421 1421 1420 1420 1420 1419 1419 1419 1419 1419 1419 1419 1420 1420 1420 1420 1420 1420 1420 1420 1420 1420 1421 1421 1421 1421 1421 1421 1421 1421 1420 1419 1418 1418 1417 1416 1414
1425 1424 1424 1423 1422 1421 1421 1421 1420 1420 1419 1419 1419 1418 1418 1418 1419 1418 1418 1419 1419 1419 1419 1419 1419 1419 1419 1419 1420 1420 1420 1420 1420 1420 1420 1420 1419 1419 1418 1417 1416 1415 1414 1413
1424 1424 1423 1422 1421 1421 1420 1419 1419 1419 1418 1418 1418 1418 1418 1417 1418 1418 1418 1418 1418 1418 1418 1418 1418 1418 1418 1419 1419 1419 1419 1419 1419 1419 1418 1418 1418 1417 1416 1415 1414 1414 1413 1411
1423 1422 1422 1421 1420 1420 1419 1419 1418 1418 1417 1417 1417 1417 1417 1417 1417 1417 1417 1417 1417 1417 1416 1417 1417 1417 1417 1417 1417 1418 1418 1418 1418 1417 1417 1417 1416 1416 1415 1414 1413 1412 1411 1410
1422 1421 1420 1420 1419 1419 1418 1418 1417 1417 1416 1416 1416 1416 1416 1416 1416 1416 1415 1415 1415 1415 1415 1415 1416 1416 1416 1416 1416 1416 1416 1416 1416 1416 1415 1415 1414 1414 1413 1412 1411 1411 1410 1409
1420 1420 1419 1419 1418 1418 1417 1417 1416 1416 1415 1415 1415 1415 1415 1415 1415 1414 1414 1414 1414 1414 1414 1414 1414 1414 1414 1414 1414 1414 1414 1414 1414 1414 1413 1413 1412 1412 1411 1410 1410 1409 1408 1407